Main page
Satellite images Climate Cyclones Lightning AirportsFAQ Languages Contact Newsletter About
Weather : Europe Africa North America South America Asia Australia-Oceania Others

, Pattaya-Rayong, U-Tapao International Airport

latitude: , longitude: Thailand, elevation: 12-38N m


METAR: VTBU 211700Z 21004KT 7000 FEW020CB 29/24 Q1006 NOSIG